Regional Weather Roundup
Issued by NWS

Home | Current Version | Previous Version | Graphics & Text | Print | Product List | Glossary On
Versions: 1 2 3 4 5 6 7 8 9 10 11 12 13 14 15 16 17 18 19 20 21 22 23 24 25 26 27 28 29 30 31 32 33 34 35 36 37 38 39 40 41 42 43 44 45 46 47 48 49 50
000
ASUS43 KIND 260109
RWRIN

WEATHER ROUNDUP FOR INDIANA
NATIONAL WEATHER SERVICE INDIANAPOLIS IN
900 PM EDT THU MAY 25 2017

NOTE: "FAIR" INDICATES FEW OR NO CLOUDS BELOW 12,000 FEET WITH NO
SIGNIFICANT WEATHER AND/OR OBSTRUCTIONS TO VISIBILITY.

* - STATION DOES NOT REPORT WEATHER SUCH AS PRECIPITATION OR FOG.

+ - STATION NOT QUALITY CONTROLLED BY THE NATIONAL WEATHER SERVICE.
    USE DATA WITH CAUTION...ESPECIALLY DEWPOINT AND RELATIVE
    HUMIDITY OBSERVATIONS.

INZ001>003-010>013-019-020-260200-
NORTHWEST INDIANA

CITY           SKY/WX    TMP DP  RH WIND       PRES   REMARKS
GARY /AIRPORT/ PTCLDY    57  52  82 CALM      29.72R
KNOX *+        CLEAR     55  45  67 W9        29.69R
LA PORTE +     CLEAR     53  50  89 NW7       29.70R
MICHIGAN CITY+ PTCLDY    50  50 100 CALM      29.70S
MONTICELLO +   PTCLDY    59  55  85 W3        29.70R
RENSSELAER +   CLEAR     61  52  72 N3        29.71R
VALPARAISO     CLEAR     57  51  80 NW6       29.71R

$$

LMZ046-743>745-260200-
SOUTHERN LAKE MICHIGAN

STATION/POSITION TIME  TEMP    WIND        PRES    WAVE
                       AIR SEA DIR/SP/G            HT
                 (UTC) (F)     (DEG/KT/KT) (MB)    (FT)
BURNS HARBOR     0030   54     330/  1/  4 1006.4R
MICHIGAN CITY    0040   51     310/  6/  9   N/A
5NW MICH CITY    0100   50 51  250/  4/  6   N/A     3

$$

INZ004-005-014>016-021>024-260200-
NORTH CENTRAL INDIANA

CITY           SKY/WX    TMP DP  RH WIND       PRES   REMARKS
ELKHART        CLEAR     57  52  82 W8        29.66R
GOSHEN         PTCLDY    59  52  77 W9        29.65R
LOGANSPORT +   CLEAR     61  54  77 W6        29.70R
PERU/GRISSOM   CLEAR     60  56  85 W8        29.67R
ROCHESTER +    CLEAR     61  55  82 NW7       29.68R
SOUTH BEND     CLEAR     53  51  93 NW8       29.68R
WARSAW +       MOCLDY    57  54  88 NW10      29.67R

$$

INZ006>009-017-018-025>027-260200-
NORTHEAST INDIANA

CITY           SKY/WX    TMP DP  RH WIND       PRES   REMARKS
AUBURN +       CLOUDY    61  55  82 W7        29.65R
FORT WAYNE     CLOUDY    60  55  83 W14       29.65R
HUNTINGTON +   MOCLDY    58  55  91 W6        29.67R
KENDALLVILLE + CLOUDY    59  56  89 NW6       29.64R

$$

INZ028-029-035-036-043>045-051>053-260200-
WEST CENTRAL INDIANA

CITY           SKY/WX    TMP DP  RH WIND       PRES   REMARKS
CRAWFORDSVL +  CLEAR     58  55  88 W6        29.72R
GREENCASTLE +  CLEAR     59  50  72 W3        29.74R
LAFAYETTE      CLEAR     61  56  83 W7        29.70R
TERRE HAUTE    CLEAR     64  55  72 NW5       29.73R

$$

INZ030>032-037>040-046>048-054>057-064-065-260200-
CENTRAL INDIANA

CITY           SKY/WX    TMP DP  RH WIND       PRES   REMARKS
CP ATTERBURY + CLOUDY    63  54  72 W7        29.73R
COLUMBUS       MOCLDY    63  54  72 W8        29.73R
FISHERS *+     CLOUDY    61  57  88 W9        29.72
FRANKFORT +    MOCLDY    63  58  83 W7        29.72R
GREENWOOD *+   CLOUDY    63  53  71 W7        29.73R
INDIANAPOLIS   MOCLDY    62  55  77 W12       29.72R
-EAGLE CREEK   CLOUDY    63  54  72 W7        29.71R
KOKOMO +       CLEAR     60  55  83 W12       29.70R
MT COMFORT *+  CLOUDY    61  55  82 W7        29.72R
SHELBYVILLE    CLOUDY    64  54  69 W8        29.71R
ZIONSVILLE +   CLOUDY    60  56  84 W9        29.72R

$$

INZ033-034-041-042-049-050-058-059-260200-
EAST CENTRAL INDIANA

CITY           SKY/WX    TMP DP  RH WIND       PRES   REMARKS
MUNCIE         CLOUDY    62  55  77 W7        29.69R
RICHMOND +     CLOUDY    57  54  88 NW14      29.69R

$$

INZ060-061-067>069-081>083-085>088-260200-
SOUTHWEST INDIANA

CITY           SKY/WX    TMP DP  RH WIND       PRES   REMARKS
EVANSVILLE     CLEAR     68  53  58 CALM      29.75R
HUNTINGBURG *+ PTCLDY    66  57  72 W6        29.75R
WASHINGTON +   PTCLDY    65  59  80 CALM      29.74R

$$

INZ062-063-066-070>080-084-089>092-260200-
SOUTH CENTRAL AND SOUTHEAST INDIANA

CITY           SKY/WX    TMP DP  RH WIND       PRES   REMARKS
BLOOMINGTON    CLEAR     63  53  70 CALM      29.73R
MADISON *+     PTCLDY    63  54  72 W6        29.76R
NORTH VERNON + CLOUDY    63  54  72 W9        29.73R
SEYMOUR +      PTCLDY    64  54  68 W7        29.74R

$$





USA.gov is the U.S. government's official web portal to all federal, state and local government web resources and services.